Troy, MI

2:35 AM EST on November 24, 2017 (GMT -0500)
Troy

Weather History for KVLL - August, 2013

Change the Weather History Date:

Tuesday, August 13, 2013

  Actual Average (KDET) Record (KDET)
Temperature  
Mean Temperature 63 °F -  
Max Temperature 68 °F 82 °F 93 °F (1988)
Min Temperature 57 °F 63 °F 51 °F (1957)
Degree Days  
Heating Degree Days 2    
Growing Degree Days 13 (Base 50)    
Moisture  
Dew Point 51 °F    
Average Humidity 65    
Maximum Humidity 93    
Minimum Humidity 41    
Precipitation  
Precipitation 0.00 in - - ()
Sea Level Pressure  
Sea Level Pressure 29.97 in    
Wind  
Wind Speed 8 mph (NW)    
Max Wind Speed 16 mph    
Max Gust Speed 24 mph    
Visibility 10 miles    
Events      
Averages and records for this station are not official NWS values.
T = Trace of Precipitation, MM = Missing Value Source: NWS Daily Summary

Daily Weather History Graph

Daily Weather History Graph

Search for Another Location

Airport or City:

Trip Planner

Search our weather history database for the weather conditions in past years. The results will help you decide how hot, cold, wet, or windy it might be!

Date:

Astronomy

Aug. 13, 2013 Rise Set
Actual Time 6:37 AM EDT 8:36 PM EDT
Civil Twilight 6:07 AM EDT 9:07 PM EDT
Nautical Twilight 5:29 AM EDT 9:44 PM EDT
Astronomical Twilight 4:48 AM EDT 10:24 PM EDT
Moon 1:41 PM EDT (8/13) No Moon Set
Length of Visible Light 15h 00m
Length of Day
13h 58m
Waxing Crescent, 41% of the Moon is Illuminated
Aug 13
Waxing Crescent
Aug 14
First Quarter
Aug 20
Full
Aug 28
Last Quarter
Sep 5
New

Hourly Weather History & Observations

Time (EDT) Temp. Dew Point Humidity Pressure Visibility Wind Dir Wind Speed Gust Speed Precip Events Conditions
12:15 AM 68.5 °F 66.4 °F 93% 29.89 in 4.0 mi WSW 4.6 mph - N/A   Overcast
12:34 AM 68.2 °F 66.0 °F 93% 29.89 in 7.0 mi WSW 3.5 mph - N/A   Overcast
12:55 AM 68.2 °F 65.5 °F 91% 29.88 in 10.0 mi West 3.5 mph - N/A   Overcast
1:14 AM 68.0 °F 64.9 °F 90% 29.87 in 10.0 mi West 3.5 mph - N/A   Overcast
1:35 AM 67.3 °F 64.4 °F 90% 29.87 in 10.0 mi WNW 4.6 mph - N/A   Mostly Cloudy
1:55 AM 67.1 °F 64.4 °F 91% 29.87 in 10.0 mi NW 5.8 mph - N/A   Scattered Clouds
2:14 AM 66.9 °F 64.2 °F 91% 29.86 in 10.0 mi NW 4.6 mph - N/A   Clear
2:35 AM 66.4 °F 63.7 °F 91% 29.86 in 10.0 mi NW 4.6 mph - N/A   Clear
2:55 AM 66.2 °F 63.5 °F 91% 29.85 in 7.0 mi NW 4.6 mph - N/A   Clear
3:15 AM 65.8 °F 63.5 °F 92% 29.85 in 7.0 mi NW 5.8 mph - N/A   Clear
3:34 AM 65.5 °F 63.1 °F 92% 29.86 in 7.0 mi NNW 6.9 mph - N/A   Clear
3:55 AM 65.3 °F 62.8 °F 92% 29.86 in 7.0 mi NNW 8.1 mph - N/A   Clear
4:15 AM 64.9 °F 62.2 °F 91% 29.87 in 7.0 mi NNW 6.9 mph - N/A   Clear
4:34 AM 64.9 °F 61.9 °F 90% 29.87 in 10.0 mi NW 6.9 mph - N/A   Clear
4:55 AM 64.4 °F 61.2 °F 89% 29.88 in 10.0 mi NNW 12.7 mph 17.3 mph N/A   Scattered Clouds
5:14 AM 63.7 °F 60.4 °F 89% 29.89 in 10.0 mi NW 6.9 mph - N/A   Scattered Clouds
5:35 AM 63.3 °F 60.1 °F 89% 29.89 in 10.0 mi NNW 6.9 mph - N/A   Scattered Clouds
5:55 AM 63.5 °F 60.3 °F 89% 29.90 in 10.0 mi NW 9.2 mph - N/A   Overcast
6:14 AM 63.0 °F 59.4 °F 88% 29.90 in 10.0 mi NNW 4.6 mph - N/A   Overcast
6:35 AM 62.6 °F 58.6 °F 87% 29.91 in 10.0 mi NNW 9.2 mph - N/A   Overcast
6:55 AM 62.1 °F 58.3 °F 87% 29.92 in 10.0 mi NNW 10.4 mph - N/A   Overcast
7:14 AM 61.7 °F 57.7 °F 87% 29.93 in 10.0 mi NW 9.2 mph - N/A   Overcast
7:35 AM 60.8 °F 56.7 °F 86% 29.93 in 10.0 mi NW 9.2 mph 17.3 mph N/A   Overcast
7:55 AM 60.1 °F 55.6 °F 85% 29.94 in 10.0 mi NW 10.4 mph - N/A   Overcast
8:15 AM 59.7 °F 54.3 °F 82% 29.95 in 10.0 mi NNW 10.4 mph 16.1 mph N/A   Mostly Cloudy
8:35 AM 59.5 °F 53.8 °F 81% 29.95 in 10.0 mi NNW 8.1 mph - N/A   Overcast
8:55 AM 59.7 °F 53.8 °F 81% 29.96 in 10.0 mi NNW 10.4 mph 17.3 mph N/A   Overcast
9:15 AM 59.9 °F 53.4 °F 79% 29.97 in 10.0 mi NW 15.0 mph 18.4 mph N/A   Overcast
9:34 AM 60.3 °F 52.9 °F 77% 29.97 in 10.0 mi NNW 9.2 mph - N/A   Mostly Cloudy
9:55 AM 61.2 °F 51.8 °F 71% 29.98 in 10.0 mi NNW 15.0 mph - N/A   Scattered Clouds
10:15 AM 61.2 °F 50.0 °F 67% 29.99 in 10.0 mi NW 11.5 mph 17.3 mph N/A   Mostly Cloudy
10:34 AM 61.7 °F 50.0 °F 65% 29.99 in 10.0 mi NNW 6.9 mph - N/A   Mostly Cloudy
10:55 AM 62.6 °F 49.6 °F 63% 29.99 in 10.0 mi NNW 11.5 mph 18.4 mph N/A   Scattered Clouds
11:15 AM 63.7 °F 49.5 °F 60% 30.00 in 10.0 mi NW 10.4 mph - N/A   Mostly Cloudy
11:34 AM 63.7 °F 48.6 °F 58% 30.00 in 10.0 mi NNW 9.2 mph - N/A   Mostly Cloudy
11:55 AM 64.8 °F 49.5 °F 58% 30.00 in 10.0 mi NNW 11.5 mph 18.4 mph N/A   Mostly Cloudy
12:15 PM 65.5 °F 47.3 °F 52% 30.00 in 10.0 mi NW 13.8 mph 18.4 mph N/A   Scattered Clouds
12:34 PM 65.5 °F 47.7 °F 53% 30.00 in 10.0 mi North 9.2 mph 19.6 mph N/A   Scattered Clouds
12:55 PM 66.2 °F 47.1 °F 50% 30.01 in 10.0 mi NW 9.2 mph 16.1 mph N/A   Scattered Clouds
1:14 PM 65.3 °F 47.1 °F 52% 30.01 in 10.0 mi NNW 12.7 mph 17.3 mph N/A   Mostly Cloudy
1:35 PM 66.6 °F 46.6 °F 49% 30.01 in 10.0 mi WNW 11.5 mph 16.1 mph N/A   Mostly Cloudy
1:54 PM 67.5 °F 46.0 °F 46% 30.02 in 10.0 mi NW 13.8 mph 18.4 mph N/A   Mostly Cloudy
2:15 PM 66.9 °F 44.6 °F 45% 30.02 in 10.0 mi NW 16.1 mph - N/A   Mostly Cloudy
2:35 PM 66.2 °F 44.2 °F 45% 30.02 in 10.0 mi NNW 10.4 mph 23.0 mph N/A   Mostly Cloudy
2:54 PM 66.2 °F 43.5 °F 44% 30.02 in 10.0 mi NW 11.5 mph 19.6 mph N/A   Scattered Clouds
3:15 PM 66.9 °F 44.1 °F 44% 30.02 in 10.0 mi NW 11.5 mph 23.0 mph N/A   Mostly Cloudy
3:35 PM 67.1 °F 44.1 °F 43% 30.02 in 10.0 mi North 13.8 mph 19.6 mph N/A   Mostly Cloudy
3:54 PM 67.1 °F 42.6 °F 41% 30.02 in 10.0 mi NW 11.5 mph 24.2 mph N/A   Mostly Cloudy
4:15 PM 67.5 °F 44.4 °F 43% 30.02 in 10.0 mi NW 8.1 mph 16.1 mph N/A   Mostly Cloudy
4:35 PM 66.7 °F 43.3 °F 43% 30.02 in 10.0 mi NW 9.2 mph - N/A   Mostly Cloudy
4:55 PM 66.2 °F 43.7 °F 44% 30.02 in 10.0 mi NW 8.1 mph - N/A   Overcast
5:15 PM 66.4 °F 42.8 °F 42% 30.02 in 10.0 mi NW 9.2 mph 16.1 mph N/A   Mostly Cloudy
5:34 PM 67.3 °F 43.3 °F 42% 30.02 in 10.0 mi NW 9.2 mph - N/A   Mostly Cloudy
5:55 PM 67.3 °F 43.0 °F 41% 30.02 in 10.0 mi NW 11.5 mph - N/A   Mostly Cloudy
6:15 PM 66.9 °F 43.3 °F 42% 30.02 in 10.0 mi NNW 8.1 mph - N/A   Overcast
6:34 PM 66.9 °F 43.5 °F 43% 30.02 in 10.0 mi NW 8.1 mph - N/A   Overcast
6:55 PM 66.4 °F 42.8 °F 42% 30.02 in 10.0 mi NNW 8.1 mph - N/A   Overcast
7:15 PM 66.2 °F 42.6 °F 42% 30.02 in 10.0 mi NW 10.4 mph - N/A   Overcast
7:34 PM 66.2 °F 43.3 °F 44% 30.02 in 10.0 mi NW 5.8 mph - N/A   Mostly Cloudy
7:55 PM 65.8 °F 42.6 °F 43% 30.03 in 10.0 mi North 11.5 mph - N/A   Mostly Cloudy
8:15 PM 65.3 °F 42.1 °F 43% 30.03 in 10.0 mi NNW 9.2 mph 17.3 mph N/A   Mostly Cloudy
8:34 PM 64.2 °F 42.3 °F 45% 30.03 in 10.0 mi NNW 10.4 mph 16.1 mph N/A   Scattered Clouds
8:55 PM 63.0 °F 43.0 °F 48% 30.04 in 10.0 mi North 6.9 mph - N/A   Clear
9:15 PM 62.6 °F 42.6 °F 48% 30.05 in 10.0 mi North 8.1 mph - N/A   Clear
9:35 PM 61.3 °F 42.8 °F 51% 30.05 in 10.0 mi NNW 6.9 mph - N/A   Clear
9:55 PM 61.0 °F 42.1 °F 50% 30.06 in 10.0 mi North 6.9 mph - N/A   Clear
10:14 PM 60.3 °F 42.3 °F 51% 30.07 in 10.0 mi NW 6.9 mph - N/A   Clear
10:35 PM 59.5 °F 42.8 °F 54% 30.07 in 10.0 mi NW 5.8 mph - N/A   Clear
10:55 PM 59.0 °F 43.0 °F 55% 30.07 in 10.0 mi NW 5.8 mph - N/A   Clear
11:14 PM 58.5 °F 43.2 °F 57% 30.07 in 10.0 mi NW 4.6 mph - N/A   Clear
11:35 PM 58.1 °F 43.7 °F 59% 30.07 in 10.0 mi NW 6.9 mph - N/A   Clear
11:55 PM 57.9 °F 43.7 °F 59% 30.07 in 10.0 mi NW 6.9 mph - N/A   Clear